# Land Stadt Wetter Temperatur Luftdruck Luftfeuchtigkeit Sichtweite Windgeschwindigkeit Windrichtung Ortszeit
1 ad Andorra la Vella Rain 19 1017 74 0 1 152 02.08.2018 14:22
2 ae Dubai Clear 39 994 29 10000 9 30 02.08.2018 14:21
3 af Kabul Clouds 20 1012 64 10000 8 90 02.08.2018 14:21
4 ar Esquel Clouds 1 1019 86 0 11 272 02.08.2018 14:22
5 ar Buenos Aires Clouds 14 1012 35 10000 15 270 02.08.2018 14:22
6 ar Ushuaia Clouds 2 1002 80 10000 39 230 02.08.2018 14:22
7 at Innsbruck Clouds 18 1023 49 10000 22 80 02.08.2018 14:23
8 at Wien Clear 18 1024 48 10000 15 10 02.08.2018 14:22
9 au Darwin Clouds 23 1013 53 10000 13 130 02.08.2018 14:22
10 au Alice Springs Clear 2 1024 69 10000 9 132 02.08.2018 14:21
11 au Perth Clouds 13 1014 71 10000 11 40 02.08.2018 14:21
12 au Sydney Rain 9 1017 93 10000 11 290 02.08.2018 14:22
13 bg Sofia Clouds 17 1019 72 10000 31 280 02.08.2018 14:21
14 bg Warna Clear 23 1012 64 10000 5 340 02.08.2018 14:21
15 bo Potisi Clear 13 1013 22 0 4 34 02.08.2018 14:22
16 bo La Paz Clouds 16 1037 9 10000 13 230 02.08.2018 14:22
17 br Rio de Janeiro Clouds 30 1012 51 10000 15 340 02.08.2018 14:22
18 br Manaus Clouds 32 1011 59 10000 9 70 02.08.2018 14:21
19 bs Nassau Clouds 31 1017 70 10000 22 220 02.08.2018 14:22
20 ca Montreal Clouds 27 1000 65 14484 30 270 02.08.2018 14:22
21 cd Kisangani Clouds 25 1010 73 0 2 350 02.08.2018 14:23
22 ch Andermatt Rain 12 1024 72 0 1 9 02.08.2018 14:23
23 ch Bern Clear 22 1022 43 10000 8 50 02.08.2018 14:23
24 ck Avarua Rain 21 1017 88 6000 13 120 02.08.2018 14:22
25 cl Santiago Haze 17 1021 59 4000 4 237 02.08.2018 14:23
26 cn Peking Clouds 25 1001 91 0 4 127 02.08.2018 14:23
27 cn Lhasa Rain 15 1008 62 0 3 167 02.08.2018 14:22
28 cn Shanghai Clouds 30 1002 79 10000 7 220 02.08.2018 14:21
29 de Dresden Clear 18 1026 39 10000 9 10 02.08.2018 14:22
30 de Helgoland Clouds 16 1027 59 10000 15 320 02.08.2018 14:22
31 de Bremen Clouds 17 1027 67 10000 15 360 02.08.2018 14:22
32 de Braunschweig Clouds 19 1023 53 0 7 331 02.08.2018 14:21
33 de Flensburg Clear 16 1026 63 10000 28 310 02.08.2018 14:21
34 de Emden Clouds 16 1027 73 0 2 0 02.08.2018 14:21
35 de Kassel Clear 18 1026 45 10000 8 40 02.08.2018 14:21
36 de Berlin Clear 18 1026 48 10000 11 330 02.08.2018 14:21
37 de Nürnberg Clear 20 1025 40 10000 5 30 02.08.2018 14:21
38 de München Clear 19 1028 49 0 9 69 02.08.2018 14:21
39 de Oberstdorf Clear 17 1023 59 0 3 51 02.08.2018 14:21
40 de Freiburg Clear 20 1023 53 0 10 76 02.08.2018 14:22
41 de Frankfurt Clouds 23 1024 28 10000 18 50 02.08.2018 14:22
42 de Torfhaus Clear 17 1026 68 0 5 37 02.08.2018 14:22
43 de Stuttgart Clear 21 1024 42 10000 9 70 02.08.2018 14:22
44 de Köln Clouds 22 1025 46 10000 8 20 02.08.2018 14:21
45 de Hiddensee Clear 16 1028 71 0 3 315 02.08.2018 14:21
46 de Magdeburg Clear 19 1026 43 0 16 8 02.08.2018 14:22
47 de Hamburg Clouds 18 1026 52 10000 13 310 02.08.2018 14:21
48 de Hannover Clear 19 1026 55 10000 9 10 02.08.2018 14:21
49 de Trier Clear 21 1025 35 10000 17 50 02.08.2018 14:21
50 do Santo Domingo Clouds 33 1016 49 10000 18 360 02.08.2018 14:21
51 ec San Cristobal Clouds 20 1014 82 0 12 158 02.08.2018 14:22
52 eg Kairo Clear 29 1007 54 10000 18 340 02.08.2018 14:22
53 es Barcelona Clouds 25 1019 65 10000 11 210 02.08.2018 14:22
54 es Madrid Clouds 28 1018 42 10000 15 100 02.08.2018 14:23
55 es Palma de Mallorca Clear 28 1020 54 10000 15 120 02.08.2018 14:22
56 es Las Palmas de Gran Canaria Clouds 24 1015 73 10000 48 20 02.08.2018 14:21
57 es Tarifa Clouds 26 1012 61 8000 24 40 02.08.2018 14:21
58 es Sevilla Clear 34 1011 34 10000 22 220 02.08.2018 14:22
59 et Addis Abeba Clouds 15 1024 82 10000 11 270 02.08.2018 14:23
60 fi Helsinki Clouds 16 1015 55 10000 15 240 02.08.2018 14:21
61 fi Rovaniemi Rain 16 1014 59 10000 8 120 02.08.2018 14:21
62 fj Suva Rain 23 1017 85 0 22 104 02.08.2018 14:21
63 fr Nizza Clouds 26 1017 54 10000 5 0 02.08.2018 14:22
64 fr Paris Clouds 24 1024 33 10000 17 40 02.08.2018 14:22
65 fr Bordeaux Clear 28 1019 24 10000 15 30 02.08.2018 14:21
66 gb Glasgow Clouds 17 1023 63 10000 21 210 02.08.2018 14:21
67 gb London Clouds 22 1026 35 10000 11 80 02.08.2018 14:22
68 gb Manchester Clouds 19 1026 55 10000 18 290 02.08.2018 14:21
69 gl Nuuk Clear 11 1004 66 0 8 210 02.08.2018 14:22
70 gr Athen Clear 28 1009 33 10000 13 360 02.08.2018 14:22
71 id Jakarta Haze 27 1009 83 5000 8 200 02.08.2018 14:22
72 ie Dublin Clouds 18 1024 72 10000 17 220 02.08.2018 14:21
73 in Nagpur Thunderstorm 25 1005 100 2000 5 240 02.08.2018 14:21
74 in Jagatsukh Clouds 18 1008 44 0 4 39 02.08.2018 14:22
75 in Mumbai Haze 28 1005 100 3000 5 100 02.08.2018 14:22
76 iq Bagdad Clear 35 996 26 10000 5 340 02.08.2018 14:22
77 is Reykjavik Rain 12 1008 87 10000 9 290 02.08.2018 14:22
78 it Palermo Clear 27 1015 69 10000 24 50 02.08.2018 14:22
79 it Rom Clear 28 1015 54 10000 9 220 02.08.2018 14:23
80 it Mailand Clear 26 1019 47 10000 11 90 02.08.2018 14:21
81 jp Nagasaki Rain 23 1008 88 0 19 150 02.08.2018 14:21
82 jp Tokio Rain 20 1009 94 10000 21 50 02.08.2018 14:22
83 ke Nairobi Clouds 20 1021 56 10000 12 82 02.08.2018 14:22
84 kr Seoul Rain 19 1005 88 6000 8 60 02.08.2018 14:21
85 ma Casablanca Clouds 24 1014 78 6000 15 20 02.08.2018 14:23
86 ma Marrakesch Clouds 37 1014 25 8000 18 350 02.08.2018 14:23
87 mg Antananarivo Clouds 14 1024 87 10000 11 50 02.08.2018 14:21
88 mn Uliastai Rain 14 1006 60 0 7 91 02.08.2018 14:23
89 mn Ulaanbaatar Clouds 15 1012 82 10000 7 140 02.08.2018 14:23
90 mv Male Clouds 29 1009 83 10000 5 40 02.08.2018 14:23
91 mx Mexiko Stadt Clouds 24 1028 38 16093 9 140 02.08.2018 14:21
92 mx Veracruz Clouds 33 1015 59 11265 5 160 02.08.2018 14:21
93 no Hammerfest Rain 13 1014 62 10000 18 80 02.08.2018 14:22
94 no Oslo Clear 18 993 55 0 2 225 02.08.2018 14:23
95 nz Wellington Rain 8 1021 93 9000 35 160 02.08.2018 14:23
96 pe Cusco Clouds 20 1029 18 10000 8 0 02.08.2018 14:23
97 pg Port Moresby Clouds 24 1010 92 0 10 121 02.08.2018 14:21
98 ph Manila Clouds 28 1005 85 0 4 341 02.08.2018 14:21
99 pt Lissabon Clear 28 1015 45 10000 15 320 02.08.2018 14:22
100 qa Doha Clear 37 994 53 10000 13 10 02.08.2018 14:23
101 ru Moskau Clouds 18 1015 87 10000 14 350 02.08.2018 14:22
102 ru Werchojansk Clear 20 1005 80 0 4 164 02.08.2018 14:22
103 ru Anadyr Fog 12 1010 71 10000 22 100 02.08.2018 14:23
104 ru Surgut Clouds 14 1010 100 10000 11 224 02.08.2018 14:23
105 ru Jakutsk Clouds 21 1006 83 10000 2 27 02.08.2018 14:22
106 ru Amderma Clouds 5 1003 95 0 16 46 02.08.2018 14:23
107 sa Riad Clouds 38 1002 14 8000 18 50 02.08.2018 14:21
108 sb Honiara Clouds 24 1008 94 10000 9 110 02.08.2018 14:22
109 se Stockholm Clouds 14 1016 87 10000 6 10 02.08.2018 14:23
110 th Bangkok Thunderstorm 27 1007 74 9000 4 0 02.08.2018 14:21
111 tr Ankara Clouds 25 1009 42 10000 11 250 02.08.2018 14:23
112 tr Alanya Clear 25 1009 44 8000 18 280 02.08.2018 14:22
113 tr Istanbul Clear 24 1011 65 10000 18 40 02.08.2018 14:23
114 ua Kiew Clouds 17 1015 82 10000 18 340 02.08.2018 14:21
115 us Denver Clouds 34 1020 12 16093 21 30 02.08.2018 14:21
116 us Nome Clear 17 1007 59 16093 9 250 02.08.2018 14:23
117 us Tucson Clouds 38 1015 22 16093 5 248 02.08.2018 14:21
118 us New York Clouds 32 1007 48 16093 18 250 02.08.2018 14:22
119 us Chicago Clouds 25 1012 60 16093 22 20 02.08.2018 14:23
120 us Honolulu Clouds 26 1018 54 16093 17 70 02.08.2018 14:22
121 us Miami Rain 32 1015 55 16093 21 260 02.08.2018 14:23
122 us Death Valley Clear 45 1011 8 0 6 167 02.08.2018 14:22
123 us Fairbanks Clouds 15 1006 67 16093 8 120 02.08.2018 14:23
124 us Las Vegas Clouds 42 1012 12 16093 9 0 02.08.2018 14:21
125 us Los Angeles Clear 32 1012 31 16093 10 214 02.08.2018 14:22
126 uy Montevideo Clouds 10 1011 53 10000 18 280 02.08.2018 14:22
127 vn Hanoi Rain 29 1004 70 10000 8 140 02.08.2018 14:21
128 za Kapstadt Clear 14 1008 44 10000 37 350 02.08.2018 14:22